Location: Risskov
(56.1972°N, 10.2480°E)
Time: 23:06:03
(UTC+00:00)

Cosmos 304 Rocket - Pass Details

Date: 05 July 2020
Orbit: 679 x 688 km, 74.0° (Epoch: 03 August)

Event Time Altitude Azimuth Distance (km) Brightness Sun altitude
Rises 22:46:13 0° 331° (NNW) 3,072 8.6 -10.7°
Reaches altitude 10° 22:48:33 10° 334° (NNW) 2,152 7.7 -10.8°
Maximum altitude 22:53:24 71° 59° (ENE) 735 4.0 -10.9°
Enters shadow 22:58:05 11° 143° (SE) 2,087 5.7 -10.9°
